FW4559 Weather Reports


Display with metric or nautical units.
time (UTC)temp
F
wind
direction
speed
MPH
gust
MPH
rain 1hr
in
rain 24hr
in
rain mn
in
humidity
%
barometer
mb
20260506153113 62 154 4.0 10.0 0.00 0.00 0.00 76 1011.6
20260506152559 63 120 4.0 10.0 0.00 0.00 0.00 77 1011.5
20260506152057 62 181 2.0 5.0 0.00 0.00 0.00 77 1011.4
20260506151557 62 157 1.0 3.0 0.00 0.00 0.00 78 1011.3
20260506151100 61 198 0.0 6.0 0.00 0.00 0.00 80 1011.2
20260506150556 60 203 2.0 7.0 0.00 0.00 0.00 80 1011.3
20260506145556 61 132 4.0 9.0 0.00 0.00 0.00 79 1011.0
20260506145055 61 148 1.0 4.0 0.00 0.00 0.00 79 1010.8
20260506144557 61 139 1.0 4.0 0.00 0.00 0.00 79 1010.7
20260506144054 61 172 1.0 8.0 0.00 0.00 0.00 78 1010.8
20260506143554 62 165 3.0 8.0 0.00 0.00 0.00 76 1011.0
20260506143053 62 198 4.0 8.0 0.00 0.00 0.00 77 1011.1
20260506142552 61 145 1.0 6.0 0.00 0.00 0.00 78 1011.1
20260506142050 60 201 0.0 4.0 0.00 0.00 0.00 79 1011.2
20260506141551 60 169 0.0 2.0 0.00 0.00 0.00 79 1011.1
20260506141050 60 138 0.0 3.0 0.00 0.00 0.00 80 1010.9
20260506140552 60 128 1.0 4.0 0.00 0.00 0.00 79 1010.9
20260506140050 60 167 0.0 5.0 0.00 0.00 0.00 79 1011.0
20260506135550 60 141 2.0 5.0 0.00 0.00 0.00 79 1010.9
20260506135049 60 146 0.0 4.0 0.00 0.00 0.00 80 1010.9
20260506134549 60 124 2.0 4.0 0.00 0.00 0.00 78 1010.9
20260506134050 60 152 0.0 2.0 0.00 0.00 0.00 79 1011.0
20260506133549 60 170 0.0 6.0 0.00 0.00 0.00 79 1011.1
20260506133148 59 159 1.0 6.0 0.00 0.00 0.00 80 1011.1
20260506132549 59 163 0.0 5.0 0.00 0.00 0.00 80 1011.1
20260506132049 59 215 2.0 4.0 0.00 0.00 0.00 80 1010.9
20260506131553 59 141 1.0 4.0 0.00 0.00 0.00 79 1011.0
20260506131047 59 147 1.0 7.0 0.00 0.00 0.00 79 1011.0
20260506130547 59 148 2.0 7.0 0.00 0.00 0.00 79 1010.8
20260506130047 59 139 1.0 5.0 0.00 0.00 0.00 79 1011.0
20260506125548 59 202 2.0 5.0 0.00 0.00 0.00 79 1011.0
20260506125046 59 153 2.0 5.0 0.00 0.00 0.00 79 1010.7
20260506124545 58 216 1.0 8.0 0.00 0.00 0.00 80 1010.9
20260506124045 58 148 3.0 9.0 0.00 0.00 0.00 80 1010.9
20260506123545 58 137 3.0 9.0 0.00 0.00 0.00 81 1011.0
20260506123045 57 146 3.0 9.0 0.00 0.00 0.00 81 1010.8
20260506122544 57 114 2.0 6.0 0.00 0.00 0.00 82 1010.8
20260506122045 57 102 2.0 11.0 0.00 0.00 0.00 82 1010.9
20260506121545 56 214 4.0 11.0 0.00 0.00 0.00 82 1010.9
20260506121044 56 156 3.0 10.0 0.00 0.00 0.00 83 1010.8
20260506120544 56 148 3.0 10.0 0.00 0.00 0.00 83 1010.8
20260506120043 56 179 2.0 9.0 0.00 0.00 0.00 83 1011.0
20260506115543 56 194 4.0 10.0 0.00 0.00 0.00 83 1011.1
20260506115042 56 179 5.0 13.0 0.00 0.00 0.00 83 1011.0
20260506114544 56 199 6.0 13.0 0.00 0.00 0.00 82 1011.1
20260506114042 57 130 4.0 9.0 0.00 0.00 0.00 81 1010.9
20260506113541 57 192 3.0 10.0 0.00 0.00 0.00 81 1011.1
20260506113043 57 134 3.0 13.0 0.00 0.00 0.00 80 1010.7
20260506112541 57 226 5.0 18.0 0.00 0.00 0.00 80 1010.8
20260506112042 57 181 5.0 14.0 0.00 0.00 0.00 80 1010.9
20260506111540 56 165 3.0 13.0 0.00 0.00 0.00 81 1010.9
20260506111040 56 274 4.0 15.0 0.00 0.00 0.00 81 1010.6
20260506110543 56 224 4.0 15.0 0.00 0.00 0.00 81 1010.7
20260506110040 55 161 2.0 9.0 0.00 0.00 0.00 83 1010.7
20260506105542 56 205 2.0 11.0 0.00 0.00 0.00 83 1010.5
20260506105042 55 213 3.0 7.0 0.00 0.00 0.00 84 1010.4
20260506104539 55 139 2.0 7.0 0.00 0.00 0.00 84 1010.6
20260506104038 55 131 2.0 13.0 0.00 0.00 0.00 85 1010.4
20260506103538 55 173 3.0 13.0 0.00 0.00 0.00 85 1010.5
20260506103048 54 127 1.0 6.0 0.00 0.00 0.00 86 1010.6
20260506102538 54 163 2.0 7.0 0.00 0.00 0.00 86 1010.5
20260506102038 54 191 2.0 7.0 0.00 0.00 0.00 86 1010.4
20260506101538 54 180 3.0 6.0 0.00 0.00 0.00 87 1010.3
20260506101037 54 158 2.0 6.0 0.00 0.00 0.00 87 1010.4
20260506100539 54 127 2.0 14.0 0.00 0.00 0.00 86 1010.4
20260506100039 54 167 6.0 14.0 0.00 0.00 0.00 86 1010.3
20260506095538 54 150 2.0 18.0 0.00 0.00 0.00 86 1010.2
20260506095037 54 135 7.0 18.0 0.00 0.00 0.00 87 1010.1
20260506094538 54 193 4.0 13.0 0.00 0.00 0.00 87 1010.0
20260506094038 54 104 5.0 9.0 0.00 0.00 0.00 87 1010.2
20260506093634 54 203 2.0 15.0 0.00 0.00 0.00 87 1010.5
20260506093033 55 211 4.0 17.0 0.00 0.00 0.00 87 1010.5
20260506092536 55 177 5.0 17.0 0.00 0.00 0.00 86 1010.4
20260506092033 55 193 4.0 15.0 0.00 0.00 0.00 86 1010.6
20260506091534 55 180 2.0 15.0 0.00 0.00 0.00 86 1010.6
20260506091032 55 141 6.0 15.0 0.00 0.00 0.00 85 1010.6
20260506090529 55 224 2.0 16.0 0.00 0.00 0.00 84 1010.4
20260506090032 55 167 4.0 18.0 0.00 0.00 0.00 84 1010.1
20260506085528 56 158 5.0 11.0 0.00 0.00 0.00 83 1010.1
20260506085025 56 254 3.0 13.0 0.00 0.00 0.00 82 1010.4
20260506084525 56 260 5.0 13.0 0.00 0.00 0.00 81 1010.5
20260506084024 56 218 6.0 14.0 0.00 0.00 0.00 80 1010.6
20260506083523 56 181 6.0 15.0 0.00 0.00 0.00 80 1010.5
20260506083021 56 191 4.0 14.0 0.00 0.00 0.00 79 1010.8
20260506082521 56 353 3.0 13.0 0.00 0.00 0.00 79 1010.7
20260506082021 56 165 2.0 7.0 0.00 0.00 0.00 78 1010.9
20260506081521 56 217 1.0 9.0 0.00 0.00 0.00 78 1011.0
20260506081021 56 235 3.0 9.0 0.00 0.00 0.00 78 1010.9
20260506080521 56 238 4.0 16.0 0.00 0.00 0.00 77 1011.0
20260506073514 57 175 4.0 16.0 0.00 0.00 0.00 72 1010.6
20260506073013 57 163 3.0 14.0 0.00 0.00 0.00 71 1010.7
20260506072512 57 179 4.0 13.0 0.00 0.00 0.00 71 1010.9
20260506072012 57 210 2.0 8.0 0.00 0.00 0.00 70 1010.9
20260506071511 57 140 2.0 8.0 0.00 0.00 0.00 70 1010.9
20260506071011 57 169 3.0 10.0 0.00 0.00 0.00 70 1011.1
20260506070513 57 167 4.0 9.0 0.00 0.00 0.00 70 1011.3
20260506062503 59 210 7.0 14.0 0.00 0.00 0.00 64 1010.5
20260506062002 60 160 4.0 11.0 0.00 0.00 0.00 64 1010.9
20260506061502 60 145 5.0 14.0 0.00 0.00 0.00 63 1010.9
20260506061003 60 166 7.0 14.0 0.00 0.00 0.00 63 1011.1
20260506060559 60 44 5.0 16.0 0.00 0.00 0.00 63 1011.3
20260506051052 60 198 2.0 15.0 0.00 0.00 0.00 63 1011.9
20260506050552 60 108 3.0 15.0 0.00 0.00 0.00 63 1012.0
20260506045051 60 150 5.0 12.0 0.00 0.00 0.00 62 1012.0
20260506044553 60 216 4.0 10.0 0.00 0.00 0.00 62 1012.2
20260506044050 60 164 3.0 14.0 0.00 0.00 0.00 62 1011.9
20260506043550 60 145 4.0 13.0 0.00 0.00 0.00 62 1011.9
20260506043049 60 155 4.0 11.0 0.00 0.00 0.00 62 1011.9
20260506042549 60 158 3.0 13.0 0.00 0.00 0.00 62 1011.9
20260506042049 60 106 4.0 13.0 0.00 0.00 0.00 61 1012.1
20260506041547 60 197 4.0 14.0 0.00 0.00 0.00 61 1012.1
20260506041048 60 137 4.0 15.0 0.00 0.00 0.00 61 1012.1
20260506040546 60 179 7.0 15.0 0.00 0.00 0.00 61 1012.1
20260506040045 60 199 3.0 13.0 0.00 0.00 0.00 61 1012.0
20260506035545 60 148 5.0 14.0 0.00 0.00 0.00 61 1012.0
20260506035045 60 146 6.0 14.0 0.00 0.00 0.00 61 1012.1
20260506034645 60 143 4.0 11.0 0.00 0.00 0.00 61 1012.0
20260506034044 60 210 5.0 11.0 0.00 0.00 0.00 61 1012.3
20260506033543 60 134 5.0 11.0 0.00 0.00 0.00 60 1012.3
20260506033043 60 188 5.0 10.0 0.00 0.00 0.00 60 1012.3
20260506032546 60 188 3.0 12.0 0.00 0.00 0.00 60 1012.4
20260506032046 60 159 6.0 12.0 0.00 0.00 0.00 60 1012.1
20260506031543 60 191 4.0 11.0 0.00 0.00 0.00 60 1012.3
20260506031041 60 211 2.0 8.0 0.00 0.00 0.00 59 1012.3
20260506030542 60 148 3.0 8.0 0.00 0.00 0.00 59 1012.3
20260506030043 60 213 4.0 11.0 0.00 0.00 0.00 59 1012.3
20260506025541 60 173 5.0 11.0 0.00 0.00 0.00 58 1012.3
20260506025041 61 163 5.0 14.0 0.00 0.00 0.00 58 1012.3
20260506024557 61 109 5.0 14.0 0.00 0.00 0.00 58 1012.3
20260506024041 61 119 2.0 12.0 0.00 0.00 0.00 58 1012.3
20260506023541 61 151 2.0 13.0 0.00 0.00 0.00 57 1012.5
20260506023041 61 146 2.0 13.0 0.00 0.00 0.00 57 1012.5
20260506022540 61 143 5.0 13.0 0.00 0.00 0.00 57 1012.5
20260506022040 61 162 3.0 12.0 0.00 0.00 0.00 57 1012.4
20260506021540 61 131 5.0 13.0 0.00 0.00 0.00 57 1012.5
20260506021141 61 173 7.0 13.0 0.00 0.00 0.00 57 1012.3
20260506020538 61 155 5.0 12.0 0.00 0.00 0.00 57 1012.4
20260506020039 61 194 3.0 14.0 0.00 0.00 0.00 57 1012.5
20260506015540 61 192 5.0 14.0 0.00 0.00 0.00 57 1012.4
20260506015039 61 144 3.0 11.0 0.00 0.00 0.00 57 1012.3
20260506014538 61 135 4.0 12.0 0.00 0.00 0.00 57 1012.4
20260506014043 61 149 5.0 12.0 0.00 0.00 0.00 57 1012.4
20260506013542 61 198 4.0 12.0 0.00 0.00 0.00 57 1012.4
20260506013058 61 190 3.0 11.0 0.00 0.00 0.00 56 1012.3
20260506012538 61 175 3.0 11.0 0.00 0.00 0.00 56 1012.6
20260506012038 61 103 3.0 8.0 0.00 0.00 0.00 56 1012.7
20260506011541 61 132 4.0 11.0 0.00 0.00 0.00 56 1012.6
20260506011037 61 171 4.0 11.0 0.00 0.00 0.00 56 1012.4
20260506010536 61 176 3.0 9.0 0.00 0.00 0.00 55 1012.5
20260506010037 61 122 4.0 9.0 0.00 0.00 0.00 55 1012.4
20260506005536 61 199 3.0 8.0 0.00 0.00 0.00 55 1012.4
20260506005035 61 155 4.0 8.0 0.00 0.00 0.00 55 1012.5
20260506004536 61 147 3.0 8.0 0.00 0.00 0.00 54 1012.4
20260506004035 61 146 4.0 8.0 0.00 0.00 0.00 54 1012.4
20260506003535 61 177 2.0 9.0 0.00 0.00 0.00 53 1012.4
20260506003036 61 197 4.0 9.0 0.00 0.00 0.00 53 1012.3
20260506002534 61 178 4.0 9.0 0.00 0.00 0.00 53 1012.4
20260506002037 62 201 3.0 10.0 0.00 0.00 0.00 52 1012.3
20260506001538 62 205 4.0 10.0 0.00 0.00 0.00 52 1012.1
20260506001034 62 116 4.0 11.0 0.00 0.00 0.00 51 1012.2
20260506000534 62 145 6.0 14.0 0.00 0.00 0.00 51 1012.2
20260506000035 62 179 8.0 14.0 0.00 0.00 0.00 50 1011.9
20260505235533 63 192 5.0 11.0 0.00 0.00 0.00 50 1012.0
20260505235033 63 148 4.0 15.0 0.00 0.00 0.00 49 1012.4
20260505234536 63 161 7.0 15.0 0.00 0.00 0.00 48 1012.4
20260505234033 63 141 2.0 11.0 0.00 0.00 0.00 48 1012.4
20260505233535 63 213 4.0 13.0 0.00 0.00 0.00 48 1012.4
20260505233032 64 212 7.0 14.0 0.00 0.00 0.00 47 1012.2
20260505232532 64 122 5.0 16.0 0.00 0.00 0.00 46 1012.2
20260505232032 64 155 8.0 18.0 0.00 0.00 0.00 46 1012.1
20260505231536 64 172 3.0 18.0 0.00 0.00 0.00 46 1012.2
20260505231033 64 144 5.0 23.0 0.00 0.00 0.00 47 1012.2
20260505230531 64 156 8.0 23.0 0.00 0.00 0.00 45 1012.1
20260505230048 64 262 5.0 18.0 0.00 0.00 0.00 46 1012.1
20260505225531 64 134 4.0 14.0 0.00 0.00 0.00 46 1012.2
20260505225031 64 205 3.0 17.0 0.00 0.00 0.00 47 1012.2
20260505224530 65 238 5.0 17.0 0.00 0.00 0.00 45 1012.0
20260505224030 65 165 8.0 16.0 0.00 0.00 0.00 45 1012.0
20260505223530 65 149 5.0 17.0 0.00 0.00 0.00 46 1011.9
20260505223029 65 175 10.0 17.0 0.00 0.00 0.00 45 1011.7
20260505222531 66 200 8.0 17.0 0.00 0.00 0.00 45 1011.7
20260505222029 66 155 5.0 12.0 0.00 0.00 0.00 45 1011.8
20260505221534 66 110 3.0 11.0 0.00 0.00 0.00 46 1011.9
20260505221028 66 139 5.0 15.0 0.00 0.00 0.00 45 1012.0
20260505220529 65 155 6.0 17.0 0.00 0.00 0.00 45 1011.9
20260505220030 66 229 6.0 16.0 0.00 0.00 0.00 44 1011.8
20260505215528 66 184 8.0 16.0 0.00 0.00 0.00 43 1011.5
20260505215027 66 150 6.0 14.0 0.00 0.00 0.00 43 1011.7
20260505214526 66 296 4.0 14.0 0.00 0.00 0.00 43 1011.8
20260505214026 66 221 1.0 14.0 0.00 0.00 0.00 44 1011.9
20260505213525 66 193 4.0 20.0 0.00 0.00 0.00 43 1012.0
20260505213028 66 154 9.0 20.0 0.00 0.00 0.00 42 1012.0
20260505212528 66 136 1.0 16.0 0.00 0.00 0.00 44 1011.9
20260505212025 66 206 5.0 16.0 0.00 0.00 0.00 42 1012.0
20260505211525 66 186 6.0 15.0 0.00 0.00 0.00 42 1012.0
20260505211023 66 150 5.0 25.0 0.00 0.00 0.00 43 1012.0
20260505210523 67 133 10.0 25.0 0.00 0.00 0.00 42 1012.3
20260505210023 67 183 7.0 20.0 0.00 0.00 0.00 42 1012.2
20260505205523 67 202 6.0 13.0 0.00 0.00 0.00 42 1012.2
20260505205023 67 129 4.0 17.0 0.00 0.00 0.00 41 1012.3
20260505204523 67 165 6.0 18.0 0.00 0.00 0.00 41 1012.1
20260505204025 67 213 7.0 17.0 0.00 0.00 0.00 41 1012.0
20260505203521 67 193 8.0 20.0 0.00 0.00 0.00 41 1012.2
20260505203027 68 177 11.0 20.0 0.00 0.00 0.00 40 1012.4
20260505202520 68 144 11.0 17.0 0.00 0.00 0.00 39 1012.5
20260505202020 68 171 6.0 17.0 0.00 0.00 0.00 39 1012.7
20260505201520 69 201 4.0 16.0 0.00 0.00 0.00 42 1012.4
20260505201019 68 188 7.0 16.0 0.00 0.00 0.00 41 1012.3
20260505200521 68 214 5.0 13.0 0.00 0.00 0.00 40 1012.3
20260505200030 68 167 5.0 14.0 0.00 0.00 0.00 41 1012.4
20260505195518 68 269 6.0 18.0 0.00 0.00 0.00 41 1012.7
20260505195017 68 198 6.0 14.0 0.00 0.00 0.00 42 1012.7
20260505194516 68 188 4.0 11.0 0.00 0.00 0.00 43 1012.7
20260505194016 68 155 4.0 12.0 0.00 0.00 0.00 42 1012.8
20260505193515 68 140 5.0 11.0 0.00 0.00 0.00 42 1012.7
20260505193015 68 211 6.0 14.0 0.00 0.00 0.00 42 1012.6
20260505192517 67 186 5.0 21.0 0.00 0.00 0.00 42 1012.6
20260505192014 67 115 9.0 21.0 0.00 0.00 0.00 42 1012.8
20260505191514 67 144 7.0 19.0 0.00 0.00 0.00 42 1012.9
20260505191012 67 160 8.0 16.0 0.00 0.00 0.00 42 1012.9
20260505190515 68 161 10.0 16.0 0.00 0.00 0.00 41 1012.8
20260505190014 68 156 5.0 14.0 0.00 0.00 0.00 42 1013.0
20260505185515 68 146 8.0 15.0 0.00 0.00 0.00 40 1013.0
20260505185011 68 124 6.0 20.0 0.00 0.00 0.00 42 1013.1
20260505184514 69 171 10.0 18.0 0.00 0.00 0.00 40 1013.4
20260505184011 69 188 6.0 12.0 0.00 0.00 0.00 39 1013.2
20260505183510 69 188 4.0 12.0 0.00 0.00 0.00 39 1013.2
20260505183009 69 148 4.0 19.0 0.00 0.00 0.00 40 1013.1
20260505182510 69 147 10.0 19.0 0.00 0.00 0.00 37 1013.3
20260505182009 69 223 6.0 19.0 0.00 0.00 0.00 37 1013.5
20260505181509 69 158 5.0 18.0 0.00 0.00 0.00 39 1013.5
20260505181008 69 122 3.0 14.0 0.00 0.00 0.00 39 1013.7
20260505180510 68 145 4.0 14.0 0.00 0.00 0.00 40 1013.5
20260505180008 68 148 7.0 15.0 0.00 0.00 0.00 39 1013.7
20260505175507 68 135 7.0 15.0 0.00 0.00 0.00 39 1013.8
20260505175007 68 143 8.0 17.0 0.00 0.00 0.00 39 1013.7
20260505174511 67 132 6.0 18.0 0.00 0.00 0.00 41 1013.9
20260505174007 67 130 8.0 18.0 0.00 0.00 0.00 41 1013.8
20260505173509 66 125 5.0 15.0 0.00 0.00 0.00 43 1013.7
20260505173018 67 139 5.0 15.0 0.00 0.00 0.00 42 1013.8
20260505172507 67 110 4.0 13.0 0.00 0.00 0.00 44 1013.7
20260505172006 67 222 4.0 12.0 0.00 0.00 0.00 45 1013.7
20260505171506 66 123 6.0 14.0 0.00 0.00 0.00 45 1013.6
20260505171010 66 134 7.0 14.0 0.00 0.00 0.00 46 1013.7
20260505170504 66 160 6.0 15.0 0.00 0.00 0.00 46 1013.8
20260505170006 66 135 8.0 14.0 0.00 0.00 0.00 47 1013.9
20260505165505 66 156 7.0 15.0 0.00 0.00 0.00 47 1013.7
20260505165005 66 94 8.0 15.0 0.00 0.00 0.00 45 1014.0
20260505164510 66 123 6.0 12.0 0.00 0.00 0.00 48 1014.0
20260505164005 65 157 5.0 10.0 0.00 0.00 0.00 48 1014.1
20260505163504 65 152 4.0 10.0 0.00 0.00 0.00 48 1014.2
20260505163011 66 161 4.0 10.0 0.00 0.00 0.00 50 1014.4
20260505162504 65 136 4.0 13.0 0.00 0.00 0.00 50 1014.5
20260505162003 65 131 7.0 13.0 0.00 0.00 0.00 50 1014.7
20260505161505 65 243 4.0 9.0 0.00 0.00 0.00 50 1014.6
20260505161002 65 152 6.0 10.0 0.00 0.00 0.00 49 1014.6
20260505160503 65 172 6.0 10.0 0.00 0.00 0.00 50 1014.7